EN

Hourly Weather Kytaihorod

Today, 31 July, Saturday

Time Temperature Precipitation Wind Pressure Humidity
00:00 +22°C° 0 mm 1 mps 736 mmHg 67%
01:00 +21°C° 0 mm 1 mps 736 mmHg 70%
02:00 +21°C° 0 mm 1 mps 736 mmHg 72%
03:00 +21°C° 0 mm 1 mps 736 mmHg 74%
04:00 +20°C° 0 mm 1 mps 736 mmHg 76%
05:00 +20°C° 0 mm 1 mps 736 mmHg 77%
06:00 +22°C° 0 mm 1 mps 736 mmHg 72%
07:00 +22°C° 0 mm 0 mps 736 mmHg 67%
08:00 +24°C° 0 mm 0 mps 736 mmHg 61%
09:00 +27°C° 0 mm 1 mps 736 mmHg 56%
10:00 +29°C° 0 mm 1 mps 736 mmHg 51%
11:00 +30°C° 0 mm 2 mps 736 mmHg 46%
12:00 +31°C° 0 mm 2 mps 736 mmHg 44%
13:00 +31°C° 0 mm 2 mps 736 mmHg 42%
14:00 +32°C° 0 mm 2 mps 736 mmHg 39%
15:00 +31°C° 0 mm 2 mps 735 mmHg 43%
16:00 +30°C° 0 mm 2 mps 735 mmHg 47%
17:00 +30°C° 0 mm 1 mps 735 mmHg 50%
18:00 +29°C° 0 mm 2 mps 735 mmHg 52%
19:00 +27°C° 0 mm 2 mps 735 mmHg 53%
20:00 +26°C° 0 mm 3 mps 735 mmHg 55%
21:00 +26°C° 0 mm 3 mps 735 mmHg 58%
22:00 +25°C° 0 mm 3 mps 735 mmHg 62%
23:00 +24°C° 0 mm 3 mps 735 mmHg 65%

Tomorrow, 1 August, Sunday

Time Temperature Precipitation Wind Pressure Humidity
00:00 +24°C° 0 mm 3 mps 735 mmHg 69%
01:00 +22°C° 0 mm 3 mps 735 mmHg 73%
02:00 +21°C° 0 mm 3 mps 735 mmHg 77%
03:00 +21°C° 0 mm 3 mps 735 mmHg 78%
04:00 +20°C° 0 mm 3 mps 735 mmHg 80%
05:00 +20°C° 0 mm 3 mps 735 mmHg 82%
06:00 +22°C° 0.1 mm 3 mps 735 mmHg 77%
07:00 +24°C° 0.1 mm 3 mps 735 mmHg 72%
08:00 +26°C° 0.1 mm 4 mps 735 mmHg 68%
09:00 +27°C° 0 mm 4 mps 735 mmHg 63%
10:00 +29°C° 0 mm 4 mps 736 mmHg 59%
11:00 +30°C° 0 mm 4 mps 736 mmHg 54%
12:00 +32°C° 0 mm 4 mps 736 mmHg 51%
13:00 +32°C° 0 mm 4 mps 736 mmHg 48%
14:00 +33°C° 0 mm 4 mps 735 mmHg 45%
15:00 +33°C° 0 mm 3 mps 735 mmHg 45%
16:00 +33°C° 0 mm 3 mps 735 mmHg 45%
17:00 +32°C° 0 mm 2 mps 735 mmHg 45%
18:00 +30°C° 0 mm 2 mps 735 mmHg 51%
19:00 +28°C° 0 mm 1 mps 734 mmHg 57%
20:00 +26°C° 0 mm 1 mps 734 mmHg 63%
21:00 +26°C° 0 mm 1 mps 734 mmHg 64%
22:00 +26°C° 0 mm 2 mps 734 mmHg 65%
23:00 +25°C° 0 mm 2 mps 734 mmHg 65%

Day after tomorrow, 2 August, Monday

Time Temperature Precipitation Wind Pressure Humidity
00:00 +25°C° 0.1 mm 2 mps 734 mmHg 67%
01:00 +24°C° 0.1 mm 3 mps 734 mmHg 69%
02:00 +24°C° 0.1 mm 3 mps 734 mmHg 70%
03:00 +22°C° 0 mm 3 mps 733 mmHg 70%
04:00 +22°C° 0 mm 4 mps 733 mmHg 70%
05:00 +21°C° 0 mm 4 mps 733 mmHg 70%
06:00 +22°C° 0.3 mm 5 mps 733 mmHg 70%
07:00 +23°C° 0.3 mm 6 mps 733 mmHg 70%
08:00 +24°C° 0.3 mm 7 mps 733 mmHg 70%
09:00 +26°C° 0 mm 6 mps 733 mmHg 64%
10:00 +28°C° 0 mm 6 mps 733 mmHg 58%
11:00 +29°C° 0 mm 6 mps 733 mmHg 52%
12:00 +30°C° 0 mm 6 mps 733 mmHg 50%
13:00 +32°C° 0 mm 6 mps 733 mmHg 47%
14:00 +33°C° 0 mm 6 mps 733 mmHg 45%
15:00 +30°C° 0.9 mm 6 mps 733 mmHg 53%
16:00 +28°C° 0.9 mm 6 mps 732 mmHg 61%
17:00 +26°C° 0.9 mm 6 mps 732 mmHg 69%
18:00 +23°C° 0.5 mm 5 mps 733 mmHg 75%
19:00 +22°C° 0.5 mm 3 mps 733 mmHg 80%
20:00 +20°C° 0.5 mm 2 mps 734 mmHg 86%
21:00 +19°C° 0.1 mm 3 mps 734 mmHg 86%
22:00 +18°C° 0.1 mm 3 mps 735 mmHg 86%
23:00 +17°C° 0.1 mm 3 mps 735 mmHg 87%

3 August, Tuesday

Time Temperature Precipitation Wind Pressure Humidity
00:00 +17°C° 0 mm 3 mps 735 mmHg 89%
01:00 +15°C° 0 mm 4 mps 736 mmHg 91%
02:00 +15°C° 0 mm 4 mps 736 mmHg 93%
03:00 +14°C° 0 mm 4 mps 736 mmHg 93%
04:00 +14°C° 0 mm 3 mps 737 mmHg 93%
05:00 +13°C° 0 mm 3 mps 737 mmHg 94%
06:00 +16°C° 0 mm 3 mps 737 mmHg 86%
07:00 +17°C° 0 mm 3 mps 738 mmHg 79%
08:00 +19°C° 0 mm 4 mps 738 mmHg 71%
09:00 +21°C° 0 mm 4 mps 738 mmHg 65%
10:00 +22°C° 0 mm 4 mps 738 mmHg 58%
11:00 +25°C° 0 mm 4 mps 738 mmHg 52%
12:00 +26°C° 0 mm 3 mps 738 mmHg 49%
13:00 +26°C° 0 mm 3 mps 738 mmHg 46%
14:00 +27°C° 0 mm 3 mps 738 mmHg 44%
15:00 +27°C° 0 mm 3 mps 738 mmHg 46%
16:00 +26°C° 0 mm 3 mps 738 mmHg 49%
17:00 +26°C° 0 mm 3 mps 738 mmHg 51%
18:00 +24°C° 0 mm 3 mps 739 mmHg 54%
19:00 +23°C° 0 mm 2 mps 739 mmHg 57%
20:00 +21°C° 0 mm 2 mps 739 mmHg 60%
21:00 +20°C° 0 mm 2 mps 739 mmHg 63%
22:00 +20°C° 0 mm 1 mps 739 mmHg 67%
23:00 +19°C° 0 mm 1 mps 739 mmHg 70%

4 August, Wednesday

Time Temperature Precipitation Wind Pressure Humidity
00:00 +19°C° 0 mm 1 mps 739 mmHg 72%
01:00 +18°C° 0 mm 1 mps 739 mmHg 74%
02:00 +18°C° 0 mm 1 mps 740 mmHg 76%
03:00 +16°C° 0 mm 1 mps 739 mmHg 77%
04:00 +16°C° 0 mm 2 mps 739 mmHg 78%
05:00 +16°C° 0 mm 2 mps 739 mmHg 80%
06:00 +18°C° 0 mm 2 mps 740 mmHg 73%
07:00 +20°C° 0 mm 2 mps 740 mmHg 67%
08:00 +22°C° 0 mm 3 mps 740 mmHg 61%
09:00 +24°C° 0 mm 3 mps 740 mmHg 56%
10:00 +26°C° 0 mm 4 mps 740 mmHg 52%
11:00 +27°C° 0 mm 4 mps 739 mmHg 47%
12:00 +28°C° 0 mm 4 mps 739 mmHg 47%
13:00 +28°C° 0 mm 4 mps 739 mmHg 47%
14:00 +28°C° 0 mm 5 mps 738 mmHg 47%
15:00 +29°C° 0 mm 4 mps 738 mmHg 48%
16:00 +29°C° 0 mm 4 mps 738 mmHg 49%
17:00 +29°C° 0 mm 3 mps 737 mmHg 50%
18:00 +27°C° 0.1 mm 4 mps 737 mmHg 58%
19:00 +25°C° 0.1 mm 4 mps 737 mmHg 65%
20:00 +22°C° 0.1 mm 5 mps 737 mmHg 72%
21:00 +21°C° 0.1 mm 4 mps 737 mmHg 76%
22:00 +20°C° 0.1 mm 4 mps 737 mmHg 80%
23:00 +20°C° 0.1 mm 4 mps 737 mmHg 84%

5 August, Thursday

Time Temperature Precipitation Wind Pressure Humidity
00:00 +20°C° 0 mm 4 mps 737 mmHg 85%
01:00 +19°C° 0 mm 4 mps 736 mmHg 86%
02:00 +19°C° 0 mm 4 mps 736 mmHg 87%
03:00 +19°C° 0 mm 4 mps 736 mmHg 87%
04:00 +18°C° 0 mm 4 mps 736 mmHg 87%
05:00 +18°C° 0 mm 3 mps 735 mmHg 88%
06:00 +19°C° 0 mm 4 mps 735 mmHg 81%
07:00 +21°C° 0 mm 5 mps 735 mmHg 74%
08:00 +22°C° 0 mm 6 mps 735 mmHg 67%
09:00 +23°C° 0 mm 6 mps 735 mmHg 63%
10:00 +24°C° 0 mm 6 mps 735 mmHg 59%
11:00 +26°C° 0 mm 6 mps 735 mmHg 55%
12:00 +28°C° 0 mm 7 mps 734 mmHg 51%
13:00 +29°C° 0 mm 7 mps 734 mmHg 47%
14:00 +31°C° 0 mm 8 mps 734 mmHg 43%
15:00 +30°C° 0 mm 7 mps 733 mmHg 47%
16:00 +29°C° 0 mm 7 mps 732 mmHg 50%
17:00 +29°C° 0 mm 6 mps 732 mmHg 53%
18:00 +27°C° 0.2 mm 5 mps 732 mmHg 61%
19:00 +25°C° 0.2 mm 5 mps 732 mmHg 69%
20:00 +21°C° 0.2 mm 4 mps 732 mmHg 77%
21:00 +21°C° 2.9 mm 4 mps 732 mmHg 82%
22:00 +20°C° 2.9 mm 3 mps 732 mmHg 88%
23:00 +20°C° 2.9 mm 3 mps 733 mmHg 94%
Show more